DMSP 5D-2 F13 DEB, 40416

Orbit data source: Space-Track

DMSP 5D-2 F13 DEB, 40416 is space debris in SSO originally from a launch on Fri, 24 Mar 1995 UTC launched from the Air Force Western Test Range (AFWTR). Debris objects in space refer to the collection of defunct objects orbiting the Earth. Examples of debris include non-operational satellites, rocket bodies, and fragments generated from explosions, collisions, or faulty payload assembly.

Loading next visibility...
Identifier
40416, 1995-015AD
Orbit
SSO
Country
Flag of USUS
Related business
Manufacturer
Unknown
Mission
Spacecraft
Bus & Motor
Unknown
Mass
Unknown
Launch date (UTC)
1995-03-24 (31 years ago)
Launch vehicle
Unknown
Launch site
Air Force Western Test Range (AFWTR)
Object type
Payload
Rocket body
Debris
Shape & HBR
Unknown shape, 0.1 m
Radar Cross Section
Small (<0.1 m²)

Expand to show TLE details & history
Last TLE update: 12 hours ago

TLE from 12 hours ago
0 DMSP 5D-2 F13 DEB
1 40416U 95015AD  26110.30598762  .00001299  00000-0  54224-3 0  9996
2 40416  98.7418 136.4140 0003463 245.3286 114.7534 14.27957588577492
Epoch: 2026-04-20T07:20Z
TLE epoch observation values (Epoch: 2026-04-20T07:20:37.330Z)
Latitude
-0.00005°
Longitude
177.86045°
Altitude
802.532 km
Speed
7.452 km/s
True Right ascension
09h 05m 39s
True Declination
0° 00' 00"
Sunlit
Object was in daylight at epoch
Visualization orbit readout
Latitude
Unknown
Longitude
Unknown
Altitude
Unknown
Speed
Unknown
Apparent Right ascension
Unknown
Apparent Declination
Unknown
Sunlit
N/A
Visualization observer readout
Local Sidereal Time
02:24:16
Azimuth
Unknown
Elevation
Unknown
Doppler factor
Unknown
Orbital elements
Apogee altitude
798.2 km
Perigee altitude
793.231 km
Semi-major axis
7,173.852 km
Eccentricity
0.00035
Inclination
98.7418°
RAAN
136.414°
Arg. of periapsis
245.3286°
True anomaly
114.78943°
Mean anomaly
114.7534°
Eccentric anomaly
114.77142°
Mean motion
3.57203 °/min
Orbital period
100.78 mins
BSTAR
0.00054224
Loading maneuver chart data...
Computing Atmospheric mass density...
Loading historical data...
Loading historical data...
Loading historical data...
Loading historical data...
Loading historical data...
Loading historical data...
Loading historical data...

Documentation

Showing up to 5 results
|